Weather History for Benton Harbor, MI

Change the Weather History Date:

Tuesday, October 15, 2013

  Actual Average Record
Temperature  
Mean Temperature 54 °F -  
Max Temperature 64 °F 62 °F 85 °F (1962)
Min Temperature 45 °F 44 °F 30 °F (2006)
Degree Days  
Heating Degree Days 11    
Growing Degree Days 4 (Base 50)    
Moisture  
Dew Point 55 °F    
Average Humidity 90    
Maximum Humidity 100    
Minimum Humidity 75    
Precipitation  
Precipitation 0.21 in - - ()
Sea Level Pressure  
Sea Level Pressure 29.92 in    
Wind  
Wind Speed 9 mph (SSE)    
Max Wind Speed 15 mph    
Max Gust Speed 23 mph    
Visibility 7 miles    
Events Rain    
Averages and records for this station are not official NWS values.
T = Trace of Precipitation, MM = Missing Value Source: NWS Daily Summary

Daily Weather History Graph

Daily Weather History Graph

Search for Another Location

Airport:

Trip Planner

Search our weather history database for the weather conditions in past years. The results will help you decide how hot, cold, wet, or windy it might be!

Date:

Astronomy

Oct. 15, 2013 Rise Set
Actual Time 7:58 AM EDT 7:03 PM EDT
Civil Twilight 7:30 AM EDT 7:31 PM EDT
Nautical Twilight 6:57 AM EDT 8:04 PM EDT
Astronomical Twilight 6:25 AM EDT 8:36 PM EDT
Moon 5:11 PM EDT (10/15) 4:17 AM EDT (10/15)
Length of Visible Light 12h 01m
Length of Day
11h 04m
Waxing Gibbous, 87% of the Moon is Illuminated
Oct 15
Waxing Gibbous
Oct 18
Full
Oct 26
Last Quarter
Nov 3
New
Nov 10
First Quarter

Hourly Weather History & Observations

Time (EDT) Temp. Windchill Dew Point Humidity Pressure Visibility Wind Dir Wind Speed Gust Speed Precip Events Conditions
12:53 AM 45.0 °F 40.6 °F 41.0 °F 86% 30.20 in 10.0 mi East 8.1 mph - N/A   Clear
1:53 AM 46.9 °F - 43.0 °F 86% 30.18 in 10.0 mi ESE 8.1 mph - N/A   Clear
2:53 AM 46.0 °F 42.5 °F 43.0 °F 89% 30.16 in 10.0 mi ESE 6.9 mph - N/A   Clear
3:53 AM 48.0 °F - 44.1 °F 86% 30.14 in 10.0 mi ESE 8.1 mph - N/A   Clear
4:53 AM 48.9 °F - 45.0 °F 86% 30.11 in 10.0 mi ESE 10.4 mph - N/A   Clear
5:53 AM 48.9 °F - 44.1 °F 83% 30.09 in 10.0 mi ESE 10.4 mph - N/A   Clear
6:53 AM 48.9 °F - 44.1 °F 83% 30.07 in 10.0 mi ESE 9.2 mph - N/A   Clear
7:53 AM 48.9 °F - 44.1 °F 83% 30.06 in 10.0 mi ESE 9.2 mph - N/A   Clear
8:53 AM 48.9 °F - 45.0 °F 86% 30.04 in 10.0 mi ESE 9.2 mph - N/A   Clear
9:53 AM 53.1 °F - 48.0 °F 83% 30.03 in 10.0 mi ESE 10.4 mph - N/A   Clear
10:53 AM 55.0 °F - 50.0 °F 83% 30.01 in 9.0 mi SE 12.7 mph - N/A   Clear
11:53 AM 57.9 °F - 52.0 °F 81% 29.98 in 9.0 mi SE 9.2 mph - N/A   Overcast
12:53 PM 61.0 °F - 54.0 °F 78% 29.94 in 9.0 mi SE 11.5 mph - N/A   Overcast
1:53 PM 63.0 °F - 55.0 °F 75% 29.91 in 10.0 mi SSE 11.5 mph 18.4 mph N/A   Overcast
2:53 PM 63.0 °F - 55.9 °F 78% 29.88 in 10.0 mi SSE 10.4 mph 17.3 mph N/A   Overcast
3:53 PM 63.0 °F - 55.9 °F 78% 29.85 in 9.0 mi SSE 12.7 mph 17.3 mph N/A   Overcast
4:25 PM 62.6 °F - 57.2 °F 82% 29.83 in 7.0 mi SSE 9.2 mph - 0.00 in Rain Light Rain
4:53 PM 63.0 °F - 57.9 °F 84% 29.83 in 6.0 mi South 8.1 mph - 0.00 in Rain Light Rain
5:15 PM 62.6 °F - 60.8 °F 94% 29.82 in 2.0 mi South 8.1 mph - 0.02 in Rain Light Rain
5:24 PM 62.6 °F - 60.8 °F 94% 29.82 in 1.5 mi South 8.1 mph - 0.04 in Rain Light Rain
5:41 PM 60.8 °F - 60.8 °F 100% 29.82 in 1.0 mi South 9.2 mph - 0.08 in Rain Rain
5:53 PM 61.0 °F - 61.0 °F 100% 29.83 in 1.0 mi South 8.1 mph - 0.10 in Rain Light Rain
5:59 PM 60.8 °F - 60.8 °F 100% 29.82 in 0.8 mi South 8.1 mph - 0.04 in Rain Heavy Rain
6:09 PM 60.8 °F - 60.8 °F 100% 29.82 in 1.2 mi South 9.2 mph - 0.06 in Rain Rain
6:16 PM 60.8 °F - 60.8 °F 100% 29.81 in 1.8 mi South 6.9 mph - 0.08 in Rain Rain
6:24 PM 60.8 °F - 60.8 °F 100% 29.81 in 2.5 mi South 6.9 mph - 0.08 in Rain Light Rain
6:53 PM 61.0 °F - 61.0 °F 100% 29.81 in 2.0 mi SSW 4.6 mph - 0.08 in   Overcast
7:53 PM 62.1 °F - 62.1 °F 100% 29.81 in 4.0 mi South 9.2 mph - 0.03 in Rain Light Rain
8:10 PM 62.6 °F - 62.6 °F 100% 29.81 in 5.0 mi SSW 8.1 mph - N/A   Overcast
8:53 PM 62.1 °F - 62.1 °F 100% 29.82 in 6.0 mi SSW 6.9 mph - N/A   Overcast
9:23 PM 62.6 °F - 60.8 °F 94% 29.82 in 8.0 mi SW 6.9 mph - N/A   Overcast
9:53 PM 61.0 °F - 61.0 °F 100% 29.82 in 7.0 mi SSW 6.9 mph - N/A   Mostly Cloudy
10:53 PM 61.0 °F - 61.0 °F 100% 29.82 in 7.0 mi SSW 9.2 mph - N/A   Mostly Cloudy
11:20 PM 60.8 °F - 60.8 °F 100% 29.82 in 7.0 mi SSW 10.4 mph - N/A   Overcast
11:53 PM 60.1 °F - 55.9 °F 86% 29.84 in 9.0 mi West 13.8 mph 23.0 mph N/A   Unknown
11:56 PM 59.0 °F - 55.4 °F 88% 29.84 in 10.0 mi West 15.0 mph 23.0 mph N/A   Overcast